Tracking 19638 objects as of 19-Apr-2019
HD Live streaming from Space Station
objects crossing your sky now

LEASAT 1 DEB *

Track LEASAT 1 DEB * now!
10-day predictions


NORAD ID: 18904
Int'l Code: 1984-113F
Perigee: 332.3 km
Apogee: 9,947.9 km
Inclination: 26.7 °
Period: 204.8 minutes
Semi major axis: 11511 km
RCS: 0.1717 m2 (medium)
Launch date: November 8, 1984
Source: United States (US)
Launch site: AIR FORCE EASTERN TEST RANGE (AFETR)

Note: This is SATELLITE DEBRIS
aabbcc
Your satellite tracking list
Your tracking list is empty




NASA's NSSDC Master Catalog

Two Line Element Set (TLE):
1 18904U 84113F   19107.39424293 +.00004629 +00000-0 +70546-3 0  9999
2 18904 026.6672 255.6582 4176683 327.5329 012.5267 07.02959250603003
Source of the keplerian elements: AFSPC